Prescott, AZ

11:45 PM MST on December 16, 2017 (GMT -0700)
Love

Weather History for KPRC - June, 2013

Change the Weather History Date:

Sunday, June 2, 2013

  Actual Average Record
Temperature  
Mean Temperature 74 °F 67 °F  
Max Temperature 91 °F 82 °F 95 °F (1996)
Min Temperature 56 °F 51 °F 35 °F (1955)
Degree Days  
Heating Degree Days 0    
Month to date heating degree days 0  
Since 1 July heating degree days 3911  
Cooling Degree Days 9    
Month to date cooling degree days 17  
Year to date cooling degree days 60  
Growing Degree Days 24 (Base 50)    
Moisture  
Dew Point 27 °F    
Average Humidity 18    
Maximum Humidity 33    
Minimum Humidity 7    
Precipitation  
Precipitation 0.00 in 0.01 in 0.76 in (1986)
Month to date precipitation 0.00 0.02  
Year to date precipitation 2.51 4.56  
Sea Level Pressure  
Sea Level Pressure 29.71 in    
Wind  
Wind Speed 10 mph (SSW)    
Max Wind Speed 24 mph    
Max Gust Speed 33 mph    
Visibility 10 miles    
Events      
T = Trace of Precipitation, MM = Missing Value Source: NWS Daily Summary

Daily Weather History Graph

Daily Weather History Graph

Search for Another Location

Airport or City:

Trip Planner

Search our weather history database for the weather conditions in past years. The results will help you decide how hot, cold, wet, or windy it might be!

Date:

Astronomy

Jun. 02, 2013 Rise Set
Actual Time 5:17 AM MST 7:38 PM MST
Civil Twilight 4:48 AM MST 8:07 PM MST
Nautical Twilight 4:12 AM MST 8:43 PM MST
Astronomical Twilight 3:33 AM MST 9:22 PM MST
Moon 1:33 AM MST (6/2) 2:24 PM MST (6/2)
Length of Visible Light 15h 19m
Length of Day
14h 20m
Waning Crescent, 30% of the Moon is Illuminated
Jun 2
Waning Crescent
Jun 8
New
Jun 16
First Quarter
Jun 23
Full
Jun 29
Last Quarter

Hourly Weather History & Observations

Time (MST) Temp. Dew Point Humidity Pressure Visibility Wind Dir Wind Speed Gust Speed Precip Events Conditions
12:53 AM 64.0 °F 33.1 °F 31% 29.76 in 10.0 mi Calm Calm - N/A   Clear
1:53 AM 63.0 °F 28.9 °F 28% 29.76 in 10.0 mi SSW 8.1 mph - N/A   Clear
2:53 AM 63.0 °F 24.1 °F 23% 29.74 in 10.0 mi South 9.2 mph - N/A   Clear
3:53 AM 61.0 °F 26.1 °F 26% 29.73 in 10.0 mi South 8.1 mph - N/A   Clear
4:53 AM 60.1 °F 23.0 °F 24% 29.74 in 10.0 mi Calm Calm - N/A   Clear
5:53 AM 57.9 °F 28.0 °F 32% 29.77 in 10.0 mi South 3.5 mph - N/A   Clear
6:53 AM 66.9 °F 33.1 °F 28% 29.76 in 10.0 mi South 4.6 mph - N/A   Clear
7:53 AM 77.0 °F 27.0 °F 16% 29.74 in 10.0 mi Calm Calm - N/A   Clear
8:53 AM 84.0 °F 28.9 °F 14% 29.73 in 10.0 mi ENE 4.6 mph - N/A   Clear
9:53 AM 84.9 °F 21.0 °F 10% 29.73 in 10.0 mi South 13.8 mph 21.9 mph N/A   Clear
10:53 AM 87.1 °F 23.0 °F 10% 29.73 in 10.0 mi South 13.8 mph 21.9 mph N/A   Clear
11:53 AM 88.0 °F 25.0 °F 10% 29.73 in 10.0 mi South 13.8 mph 24.2 mph N/A   Clear
12:53 PM 90.0 °F 18.0 °F 7% 29.71 in 10.0 mi SW 21.9 mph 28.8 mph N/A   Partly Cloudy
1:53 PM 90.0 °F 21.0 °F 8% 29.70 in 10.0 mi SW 21.9 mph 29.9 mph N/A   Clear
2:53 PM 89.1 °F 21.9 °F 9% 29.69 in 10.0 mi WSW 13.8 mph 24.2 mph N/A   Clear
3:53 PM 89.1 °F 26.1 °F 10% 29.68 in 10.0 mi WSW 16.1 mph 21.9 mph N/A   Clear
4:53 PM 87.1 °F 27.0 °F 11% 29.67 in 10.0 mi South 11.5 mph 23.0 mph N/A   Partly Cloudy
5:53 PM 87.1 °F 26.1 °F 11% 29.68 in 10.0 mi SW 13.8 mph 21.9 mph N/A   Partly Cloudy
6:53 PM 84.0 °F 27.0 °F 13% 29.67 in 10.0 mi SSW 13.8 mph 20.7 mph N/A   Clear
7:53 PM 81.0 °F 27.0 °F 14% 29.66 in 10.0 mi SSW 9.2 mph - N/A   Clear
8:53 PM 75.0 °F 28.9 °F 18% 29.67 in 10.0 mi SSW 5.8 mph - N/A   Clear
9:53 PM 73.9 °F 30.0 °F 20% 29.68 in 10.0 mi SSW 8.1 mph - N/A   Clear
10:53 PM 72.0 °F 32.0 °F 23% 29.68 in 10.0 mi SSW 9.2 mph - N/A   Clear
11:53 PM 71.1 °F 32.0 °F 24% 29.67 in 10.0 mi SW 8.1 mph - N/A   Clear